DW8947 Weather Reports


Display with metric or nautical units.
time (UTC)temp
F
wind
direction
speed
MPH
gust
MPH
rain 1hr
in
rain 24hr
in
rain mn
in
humidity
%
barometer
mb
20260831033704 62 58 0.0 2.0 0.00 0.00 0.00 76 1016.2
20260831032203 62 48 0.0 2.0 0.00 0.00 0.00 74 1016.2
20260831031704 62 48 0.0 2.0 0.00 0.00 0.00 75 1016.2
20260831030703 63 16 1.0 3.0 0.00 0.00 0.00 72 1016.2
20260831030204 63 48 0.0 2.0 0.00 0.00 0.00 74 1016.2
20260831025704 63 48 0.0 2.0 0.00 0.00 0.00 74 1016.2
20260831025204 63 102 0.0 2.0 0.00 0.00 0.00 74 1016.2
20260831024704 63 137 0.0 2.0 0.00 0.00 0.00 73 1016.3
20260831023704 64 179 0.0 2.0 0.00 0.00 0.00 70 1016.3
20260831023204 64 179 0.0 2.0 0.00 0.00 0.00 70 1016.3
20260831022704 64 179 0.0 2.0 0.00 0.00 0.00 70 1016.3
20260831022203 65 179 0.0 2.0 0.00 0.00 0.00 70 1016.3
20260831020704 65 179 0.0 2.0 0.00 0.00 0.00 70 1016.4
20260831015704 66 185 0.0 2.0 0.00 0.00 0.00 68 1016.4
20260831015204 66 185 0.0 1.0 0.00 0.00 0.00 67 1016.4
20260831014704 67 185 0.0 2.0 0.00 0.00 0.00 66 1016.5
20260831014204 67 185 0.0 0.0 0.00 0.00 0.00 66 1016.4
20260831013703 67 185 0.0 2.0 0.00 0.00 0.00 64 1016.5
20260831013204 67 185 0.0 2.0 0.00 0.00 0.00 64 1016.5
20260831012703 68 185 0.0 0.0 0.00 0.00 0.00 64 1016.6
20260831010704 68 208 0.0 1.0 0.00 0.00 0.00 61 1016.7
20260831005703 69 208 0.0 2.0 0.00 0.00 0.00 59 1016.8
20260831005204 69 178 0.0 2.0 0.00 0.00 0.00 62 1016.8
20260831004704 69 221 0.0 2.0 0.00 0.00 0.00 59 1016.7
20260831002703 69 136 0.0 2.0 0.00 0.00 0.00 57 1016.9
20260831002204 69 211 0.0 2.0 0.00 0.00 0.00 56 1016.9
20260831001203 69 295 0.0 2.0 0.00 0.00 0.00 59 1016.9
20260831000705 69 68 0.0 2.0 0.00 0.00 0.00 60 1016.9
20260830234703 69 13 1.0 2.0 0.00 0.00 0.00 56 1017.0
20260830234207 69 14 0.0 2.0 0.00 0.00 0.00 57 1017.0
20260830233707 69 134 1.0 2.0 0.00 0.00 0.00 63 1017.1
20260830232206 69 69 0.0 2.0 0.00 0.00 0.00 62 1017.2
20260830231706 69 69 0.0 2.0 0.00 0.00 0.00 61 1017.2
20260830230706 68 83 1.0 3.0 0.00 0.00 0.00 60 1017.3
20260830225707 68 145 0.0 2.0 0.00 0.00 0.00 62 1017.3
20260830225206 69 98 0.0 2.0 0.00 0.00 0.00 62 1017.2
20260830224706 69 16 0.0 2.0 0.00 0.00 0.00 56 1017.2
20260830222206 68 246 0.0 2.0 0.00 0.00 0.00 59 1017.6
20260830221706 69 246 0.0 2.0 0.00 0.00 0.00 56 1017.8
20260830221206 69 246 0.0 1.0 0.00 0.00 0.00 61 1017.8
20260830215706 69 194 0.0 2.0 0.00 0.00 0.00 60 1017.9
20260830212706 67 183 0.0 2.0 0.00 0.00 0.00 63 1018.1
20260830211206 67 173 0.0 2.0 0.00 0.00 0.00 62 1018.2
20260830210206 68 275 1.0 2.0 0.00 0.00 0.00 62 1018.3
20260830205207 67 275 1.0 1.0 0.00 0.00 0.00 62 1018.2
20260830204706 68 284 1.0 2.0 0.00 0.00 0.00 64 1018.2
20260830204206 68 71 0.0 2.0 0.00 0.00 0.00 61 1018.2
20260830203706 69 152 1.0 2.0 0.00 0.00 0.00 62 1018.3
20260830203207 69 152 0.0 2.0 0.00 0.00 0.00 62 1018.3
20260830202207 67 184 0.0 2.0 0.00 0.00 0.00 65 1018.5
20260830201206 66 246 0.0 2.0 0.00 0.00 0.00 65 1018.6
20260830200706 66 246 1.0 2.0 0.00 0.00 0.00 65 1018.6
20260830194709 67 159 1.0 2.0 0.00 0.00 0.00 66 1018.7
20260830194205 67 140 1.0 1.0 0.00 0.00 0.00 64 1018.7
20260830191205 64 164 0.0 1.0 0.00 0.00 0.00 70 1018.9
20260830185204 63 204 0.0 1.0 0.00 0.00 0.00 73 1019.0
20260830184705 63 225 1.0 2.0 0.00 0.00 0.00 75 1019.1
20260830184205 62 279 1.0 1.0 0.00 0.00 0.00 74 1019.1
20260830183705 62 277 1.0 2.0 0.00 0.00 0.00 74 1019.0
20260830182705 62 281 1.0 2.0 0.00 0.00 0.00 76 1019.1
20260830181204 61 273 1.0 2.0 0.00 0.00 0.00 81 1018.9
20260830180704 61 248 0.0 2.0 0.00 0.00 0.00 82 1018.8
20260830175705 61 214 0.0 2.0 0.00 0.00 0.00 82 1018.9
20260830174205 60 84 0.0 1.0 0.00 0.00 0.00 84 1018.8
20260830173705 60 24 1.0 2.0 0.00 0.00 0.00 82 1018.8
20260830173205 60 244 0.0 2.0 0.00 0.00 0.00 82 1018.9
20260830172205 59 295 0.0 2.0 0.00 0.00 0.00 82 1019.0
20260830171205 59 204 0.0 2.0 0.00 0.00 0.00 83 1019.0
20260830164705 59 172 0.0 2.0 0.00 0.00 0.00 85 1018.8
20260830163205 58 172 0.0 2.0 0.00 0.00 0.00 85 1018.9
20260830162705 58 172 0.0 2.0 0.00 0.00 0.00 86 1018.9
20260830162204 58 172 0.0 1.0 0.00 0.00 0.00 86 1018.9
20260830161705 58 172 0.0 2.0 0.00 0.00 0.00 86 1018.9
20260830160204 58 293 0.0 2.0 0.00 0.00 0.00 87 1019.0
20260830155204 57 306 0.0 2.0 0.00 0.00 0.00 87 1018.9
20260830154205 57 306 0.0 2.0 0.00 0.00 0.00 88 1018.9
20260830153205 57 306 0.0 2.0 0.00 0.00 0.00 88 1018.8
20260830152205 57 306 0.0 2.0 0.00 0.00 0.00 90 1018.7
20260830151204 56 306 0.0 0.0 0.00 0.00 0.00 91 1018.8
20260830150204 56 306 0.0 0.0 0.00 0.00 0.00 92 1018.9
20260830145204 56 306 0.0 0.0 0.00 0.00 0.00 93 1018.8
20260830144705 55 306 0.0 0.0 0.00 0.00 0.00 93 1018.9
20260830144205 55 306 0.0 0.0 0.00 0.00 0.00 93 1018.8
20260830143704 55 306 0.0 0.0 0.00 0.00 0.00 93 1018.7
20260830142204 55 306 0.0 0.0 0.00 0.00 0.00 93 1018.6
20260830141205 55 306 0.0 0.0 0.00 0.00 0.00 92 1018.5
20260830140204 54 306 0.0 0.0 0.00 0.01 0.00 92 1018.4
20260830135204 55 306 0.0 0.0 0.00 0.02 0.00 92 1018.4
20260830134705 54 306 0.0 0.0 0.00 0.03 0.00 92 1018.3
20260830133704 55 306 0.0 0.0 0.00 0.03 0.00 91 1018.3
20260830125705 55 306 0.0 0.0 0.00 0.08 0.00 90 1018.3
20260830123705 56 306 0.0 0.0 0.00 0.10 0.00 89 1018.2
20260830122704 56 306 0.0 0.0 0.00 0.11 0.00 89 1018.2
20260830122204 56 305 0.0 0.0 0.00 0.12 0.00 89 1018.1
20260830121204 56 306 0.0 0.0 0.00 0.15 0.00 89 1018.1
20260830120205 57 305 0.0 0.0 0.00 0.18 0.00 89 1018.2
20260830114204 57 306 0.0 0.0 0.00 0.31 0.00 89 1018.3
20260830112705 57 306 0.0 0.0 0.00 0.38 0.00 90 1018.3
20260830112204 57 306 0.0 0.0 0.00 0.38 0.00 89 1018.2
20260830111704 57 306 0.0 0.0 0.00 0.38 0.00 89 1018.2
20260830110705 57 306 0.0 0.0 0.00 0.38 0.00 89 1018.1
20260830110205 57 306 0.0 0.0 0.00 0.38 0.00 89 1018.1
20260830105205 57 305 0.0 0.0 0.00 0.38 0.00 89 1018.1
20260830104705 57 306 0.0 0.0 0.00 0.38 0.00 89 1018.0
20260830104205 57 306 0.0 0.0 0.00 0.38 0.00 89 1018.0
20260830103205 57 306 0.0 0.0 0.00 0.38 0.00 88 1018.0
20260830102704 57 305 0.0 0.0 0.00 0.38 0.00 89 1018.1
20260830101705 57 306 0.0 1.0 0.00 0.38 0.00 89 1018.1
20260830100704 57 306 0.0 0.0 0.00 0.38 0.00 89 1018.0
20260830095705 57 306 0.0 1.0 0.00 0.38 0.00 88 1018.1
20260830095204 57 306 0.0 2.0 0.00 0.38 0.00 88 1018.0
20260830091705 57 306 0.0 0.0 0.00 0.38 0.00 89 1018.0
20260830091204 57 306 0.0 1.0 0.00 0.38 0.00 89 1018.0
20260830085204 57 306 0.0 2.0 0.00 0.38 0.00 89 1018.0
20260830084705 57 305 0.0 2.0 0.00 0.38 0.00 90 1017.9
20260830084205 57 305 0.0 1.0 0.00 0.38 0.00 89 1017.9
20260830083705 57 306 0.0 2.0 0.00 0.38 0.00 89 1017.9
20260830082705 57 306 0.0 2.0 0.00 0.38 0.00 89 1017.9
20260830081705 57 304 0.0 2.0 0.00 0.38 0.00 90 1017.9
20260830080705 56 304 0.0 1.0 0.00 0.38 0.00 90 1017.9
20260830075205 56 304 1.0 2.0 0.00 0.38 0.00 90 1017.7
20260830073705 55 323 0.0 1.0 0.00 0.38 0.00 90 1017.5
20260830073204 55 311 1.0 1.0 0.00 0.38 0.00 90 1017.6
20260830071705 56 212 0.0 2.0 0.00 0.38 0.00 89 1017.6
20260830070705 56 34 0.0 2.0 0.00 0.38 0.00 88 1017.6
20260830070205 56 34 0.0 2.0 0.00 0.38 0.00 89 1017.5
20260830065205 56 34 0.0 2.0 0.00 0.38 0.38 88 1017.6
20260830064705 56 34 0.0 2.0 0.00 0.38 0.38 88 1017.5
20260830063205 57 37 1.0 2.0 0.00 0.38 0.38 88 1017.4
20260830062704 57 320 0.0 2.0 0.00 0.38 0.38 88 1017.4
20260830061705 57 267 0.0 2.0 0.00 0.38 0.38 87 1017.3
20260830061204 57 306 0.0 2.0 0.00 0.38 0.38 88 1017.3
20260830060705 57 306 0.0 2.0 0.00 0.38 0.38 88 1017.3
20260830055205 57 25 0.0 2.0 0.00 0.38 0.38 87 1017.3
20260830054704 57 302 0.0 2.0 0.00 0.38 0.38 87 1017.4
20260830054205 57 302 0.0 2.0 0.00 0.38 0.38 87 1017.4
20260830053705 57 34 0.0 2.0 0.00 0.38 0.38 87 1017.3
20260830052705 57 34 0.0 2.0 0.00 0.38 0.38 87 1017.4
20260830051705 57 34 0.0 1.0 0.00 0.38 0.38 87 1017.4
20260830044704 58 85 0.0 2.0 0.00 0.38 0.38 88 1017.2
20260830044204 58 85 0.0 2.0 0.00 0.38 0.38 87 1017.2
20260830043705 58 67 0.0 2.0 0.00 0.38 0.38 88 1017.2
20260830040204 59 71 0.0 2.0 0.00 0.38 0.38 88 1016.8
20260830035205 59 76 0.0 2.0 0.00 0.38 0.38 87 1016.7
20260830034204 59 76 0.0 2.0 0.00 0.38 0.38 87 1016.7